FW9985 Weather Reports


time (UTC)temp
C
wind
direction
speed
KPH
gust
KPH
rain 1hr
cm
rain 24hr
cm
rain mn
cm
humidity
%
barometer
mb
20260506144529 10 286 6.4 14.5 0.00 1.93 1.47 90 1009.7
20260506143028 9 9 3.2 14.5 0.00 1.93 1.47 92 1009.5
20260506141530 9 330 3.2 14.5 0.00 1.93 1.47 94 1009.5
20260506140034 8 20 6.4 16.1 0.00 1.93 1.47 95 1009.2
20260506134533 8 0 1.6 17.7 0.03 1.93 1.47 96 1009.3
20260506133033 7 34 3.2 14.5 0.10 1.93 1.47 96 1009.1
20260506131536 7 9 3.2 8.0 0.13 1.93 1.47 96 1008.9
20260506130030 7 5 0.0 8.0 0.13 1.93 1.47 96 1008.9
20260506124531 7 5 3.2 17.7 0.13 1.91 1.45 96 1009.1
20260506123030 7 336 6.4 14.5 0.10 1.83 1.37 96 1008.9
20260506121529 7 33 1.6 14.5 0.10 1.80 1.32 96 1008.1
20260506120029 7 27 3.2 14.5 0.13 1.80 1.32 96 1008.3
20260506114532 7 360 1.6 17.7 0.10 1.78 1.32 96 1008.0
20260506113032 7 360 6.4 17.7 0.05 1.73 1.27 96 1008.5
20260506111531 7 5 3.2 20.9 0.05 1.70 1.24 96 1007.8
20260506110029 8 5 3.2 11.3 0.05 1.68 1.22 96 1007.2
20260506104527 8 46 1.6 12.9 0.08 1.68 1.22 96 1006.6
20260506103028 8 52 1.6 12.9 0.15 1.68 1.22 96 1006.6
20260506101528 8 344 4.8 20.9 0.23 1.65 1.19 96 1007.2
20260506100034 8 13 11.3 25.7 0.23 1.63 1.17 96 1007.1
20260506094530 8 347 8.0 20.9 0.20 1.60 1.14 96 1007.1
20260506093030 9 31 4.8 16.1 0.18 1.52 1.07 96 1006.7
20260506091530 9 17 4.8 17.7 0.20 1.42 0.97 96 1006.7
20260506090027 9 35 3.2 12.9 0.28 1.40 0.94 96 1006.3
20260506084536 9 0 0.0 14.5 0.36 1.37 0.91 96 1006.3
20260506083032 10 15 4.8 14.5 0.38 1.32 0.86 96 1006.1
20260506081528 10 25 3.2 9.7 0.38 1.22 0.76 96 1006.0
20260506073029 11 60 1.6 12.9 0.15 0.94 0.48 95 1005.9
20260506071530 13 48 4.8 11.3 0.08 0.84 0.38 96 1006.0
20260506061531 13 229 4.8 9.7 0.08 0.76 0.30 96 1006.6
20260506044531 13 194 4.8 9.7 0.15 0.56 0.10 96 1007.8
20260506043028 14 196 3.2 6.4 0.15 0.51 0.05 96 1007.9
20260506041544 14 0 3.2 6.4 0.13 0.48 0.03 96 1008.0
20260506040033 14 292 1.6 4.8 0.13 0.46 0.00 96 1008.1
20260506034543 14 292 1.6 6.4 0.10 0.41 0.41 96 1008.2
20260506033029 13 0 0.0 8.0 0.05 0.36 0.36 96 1008.3
20260506031529 13 346 1.6 9.7 0.10 0.36 0.36 95 1008.1
20260506030028 13 338 0.0 6.4 0.08 0.33 0.33 96 1008.3
20260506024529 14 0 0.0 3.2 0.08 0.30 0.30 95 1008.7
20260506023030 14 256 0.0 4.8 0.08 0.30 0.30 95 1008.8
20260506021529 14 284 0.0 1.6 0.03 0.25 0.25 95 1008.5
20260506020028 14 0 0.0 1.6 0.10 0.25 0.25 94 1008.2
20260506014528 14 0 0.0 6.4 0.13 0.23 0.23 94 1008.1
20260506013041 14 292 1.6 8.0 0.13 0.23 0.23 93 1008.2
20260506011531 13 318 6.4 19.3 0.15 0.23 0.23 93 1008.5
20260506010032 14 279 4.8 12.9 0.15 0.15 0.15 92 1008.4
20260506004527 14 336 3.2 12.9 0.10 0.10 0.10 90 1008.0
20260506003030 15 355 6.4 25.7 0.10 0.10 0.10 85 1007.9
20260506001529 19 334 19.3 45.1 0.05 0.05 0.05 66 1008.0
20260506000029 20 210 17.7 30.6 0.00 0.00 0.00 58 1007.4
20260505234529 20 223 20.9 29.0 0.00 0.00 0.00 57 1007.2
20260505233030 20 228 20.9 35.4 0.00 0.00 0.00 57 1007.3
20260505231531 20 260 12.9 30.6 0.00 0.00 0.00 57 1007.2
20260505230041 20 257 12.9 41.8 0.00 0.00 0.00 58 1007.4
20260505224530 20 250 12.9 20.9 0.00 0.00 0.00 59 1007.4
20260505223039 20 238 11.3 19.3 0.00 0.00 0.00 59 1007.5
20260505221534 21 201 11.3 27.4 0.00 0.00 0.00 58 1007.4
20260505220047 21 254 17.7 27.4 0.00 0.00 0.00 58 1007.6
20260505214535 21 265 22.5 40.2 0.00 0.00 0.00 58 1007.5
20260505213033 21 244 14.5 29.0 0.00 0.00 0.00 57 1007.6
20260505211531 21 240 19.3 45.1 0.00 0.00 0.00 57 1007.7
20260505210035 21 223 24.1 40.2 0.00 0.00 0.00 57 1007.8
20260505204530 21 238 25.7 38.6 0.00 0.00 0.00 56 1007.9
20260505203029 21 260 25.7 46.7 0.00 0.00 0.00 58 1008.0
20260505201532 21 223 16.1 33.8 0.00 0.00 0.00 59 1007.9
20260505200039 21 262 22.5 40.2 0.00 0.00 0.00 59 1008.0
20260505194530 20 243 17.7 25.7 0.00 0.00 0.00 58 1008.0
20260505193034 20 248 11.3 19.3 0.00 0.00 0.00 59 1008.1
20260505191537 20 240 11.3 22.5 0.00 0.00 0.00 58 1008.3
20260505190030 20 254 11.3 24.1 0.00 0.00 0.00 57 1008.5
20260505184530 21 232 12.9 27.4 0.00 0.00 0.00 57 1008.6
20260505183036 21 271 9.7 25.7 0.00 0.00 0.00 56 1008.6
20260505181529 21 252 12.9 27.4 0.00 0.00 0.00 58 1008.7
20260505180029 20 227 19.3 33.8 0.00 0.00 0.00 58 1008.7
20260505174530 21 289 22.5 43.5 0.00 0.00 0.00 56 1008.7
20260505173032 21 259 24.1 38.6 0.00 0.00 0.00 55 1008.7
20260505171532 21 265 24.1 51.5 0.00 0.00 0.00 54 1008.8
20260505170031 21 265 25.7 45.1 0.00 0.00 0.00 55 1008.9
20260505164530 20 211 22.5 35.4 0.00 0.00 0.00 59 1008.8
20260505163032 20 252 25.7 43.5 0.00 0.00 0.00 57 1008.5
20260505161540 21 240 19.3 37.0 0.00 0.00 0.00 55 1008.1
20260505153030 20 244 27.4 41.8 0.00 0.00 0.00 57 1008.4
20260505151529 20 265 20.9 53.1 0.00 0.00 0.00 58 1008.3